Fryeburg, ME

7:03 AM EDT on August 23, 2017 (GMT -0400)
Eastern Slopes Regional

Weather History for KIZG - April, 2012

Change the Weather History Date:

Tuesday, April 10, 2012

  Actual Average Record
Temperature  
Mean Temperature 48 °F -  
Max Temperature 57 °F 51 °F 77 °F (2017)
Min Temperature 41 °F 25 °F 14 °F (1997)
Degree Days  
Heating Degree Days 17    
Moisture  
Dew Point 32 °F    
Average Humidity 59    
Maximum Humidity 76    
Minimum Humidity 40    
Precipitation  
Precipitation 0.00 in - - ()
Sea Level Pressure  
Sea Level Pressure 29.59 in    
Wind  
Wind Speed 7 mph (WSW)    
Max Wind Speed 12 mph    
Max Gust Speed 21 mph    
Visibility 10 miles    
Events      
Averages and records for this station are not official NWS values.
T = Trace of Precipitation, MM = Missing Value Source: NWS Daily Summary

Daily Weather History Graph

Daily Weather History Graph

Search for Another Location

Airport or City:

Trip Planner

Search our weather history database for the weather conditions in past years. The results will help you decide how hot, cold, wet, or windy it might be!

Date:

Astronomy

Apr. 10, 2012 Rise Set
Actual Time 6:08 AM EDT 7:22 PM EDT
Civil Twilight 5:38 AM EDT 7:52 PM EDT
Nautical Twilight 5:03 AM EDT 8:27 PM EDT
Astronomical Twilight 4:25 AM EDT 9:05 PM EDT
Moon No Moon Rise 8:41 AM EDT (4/10)
Length of Visible Light 14h 13m
Length of Day
13h 13m
Waning Gibbous, 79% of the Moon is Illuminated
Apr 10
Waning Gibbous
Apr 13
Last Quarter
Apr 21
New
Apr 29
First Quarter
May 5
Full

Hourly Weather History & Observations

Time (EDT) Temp. Windchill Dew Point Humidity Pressure Visibility Wind Dir Wind Speed Gust Speed Precip Events Conditions
12:54 AM 41.0 °F 35.2 °F 34.0 °F 76% 29.53 in 10.0 mi WSW 9.2 mph - N/A   Clear
1:54 AM 41.0 °F 35.2 °F 34.0 °F 76% 29.53 in 10.0 mi WSW 9.2 mph - N/A   Clear
2:54 AM 41.0 °F 39.0 °F 34.0 °F 76% 29.53 in 10.0 mi South 3.5 mph - N/A   Scattered Clouds
3:54 AM 42.1 °F 38.4 °F 33.1 °F 70% 29.52 in 10.0 mi WSW 5.8 mph - N/A   Clear
4:54 AM 42.1 °F 37.7 °F 32.0 °F 67% 29.52 in 10.0 mi Variable 6.9 mph - N/A   Clear
5:54 AM 42.1 °F 37.1 °F 32.0 °F 67% 29.52 in 10.0 mi WSW 8.1 mph - N/A   Clear
6:54 AM 42.1 °F 37.7 °F 33.1 °F 70% 29.53 in 10.0 mi WSW 6.9 mph - N/A   Clear
7:54 AM 43.0 °F 38.2 °F 33.1 °F 68% 29.54 in 10.0 mi WSW 8.1 mph - N/A   Clear
8:54 AM 45.0 °F 43.5 °F 33.1 °F 63% 29.56 in 10.0 mi Variable 3.5 mph - N/A   Clear
9:54 AM 46.9 °F - 33.1 °F 59% 29.57 in 10.0 mi SSW 10.4 mph - N/A   Partly Cloudy
10:54 AM 48.9 °F - 32.0 °F 52% 29.57 in 10.0 mi Variable 4.6 mph - N/A   Mostly Cloudy
11:54 AM 51.1 °F - 32.0 °F 48% 29.58 in 10.0 mi SW 8.1 mph 18.4 mph N/A   Mostly Cloudy
12:54 PM 52.0 °F - 32.0 °F 47% 29.57 in 10.0 mi Variable 6.9 mph - N/A   Mostly Cloudy
1:54 PM 55.0 °F - 30.9 °F 40% 29.56 in 10.0 mi SW 10.4 mph 18.4 mph N/A   Partly Cloudy
3:54 PM 53.1 °F - 30.0 °F 41% 29.58 in 10.0 mi SW 11.5 mph 20.7 mph 0.00 in   Mostly Cloudy
4:54 PM 52.0 °F - 30.0 °F 43% 29.59 in 10.0 mi Variable 5.8 mph - N/A   Overcast
5:54 PM 51.1 °F - 30.0 °F 44% 29.62 in 10.0 mi WSW 11.5 mph 18.4 mph N/A   Clear
6:54 PM 50.0 °F - 28.9 °F 44% 29.64 in 10.0 mi WSW 9.2 mph - N/A   Mostly Cloudy
7:54 PM 48.0 °F - 30.0 °F 50% 29.67 in 10.0 mi West 5.8 mph - N/A   Clear
8:54 PM 46.0 °F 44.8 °F 30.9 °F 56% 29.70 in 10.0 mi West 3.5 mph - N/A   Scattered Clouds
9:54 PM 44.1 °F 41.5 °F 32.0 °F 63% 29.71 in 10.0 mi WNW 4.6 mph - N/A   Partly Cloudy
10:54 PM 41.0 °F 39.0 °F 32.0 °F 70% 29.72 in 10.0 mi SW 3.5 mph - N/A   Partly Cloudy
11:54 PM 41.0 °F 38.0 °F 32.0 °F 70% 29.73 in 10.0 mi SW 4.6 mph - N/A   Partly Cloudy